| time (UTC) | temp F | wind direction | speed MPH | gust MPH | rain 1hr in | rain 24hr in | rain mn in | humidity % | barometer mb |
| 20260503184243 | 62 | 231 | 3.0 | 11.0 | 0.00 | 0.00 | 0.00 | 44 | 1018.9 |
| 20260503183734 | 62 | 280 | 6.0 | 11.0 | 0.00 | 0.00 | 0.00 | 43 | 1018.9 |
| 20260503183226 | 61 | 186 | 4.0 | 11.0 | 0.00 | 0.00 | 0.00 | 43 | 1019.0 |
| 20260503182739 | 61 | 207 | 4.0 | 12.0 | 0.00 | 0.00 | 0.00 | 44 | 1019.0 |
| 20260503182230 | 61 | 226 | 3.0 | 12.0 | 0.00 | 0.00 | 0.00 | 47 | 1019.0 |
| 20260503181723 | 61 | 180 | 5.0 | 11.0 | 0.00 | 0.00 | 0.00 | 48 | 1019.1 |
| 20260503181236 | 61 | 193 | 5.0 | 10.0 | 0.00 | 0.00 | 0.00 | 45 | 1019.1 |
| 20260503180728 | 61 | 190 | 5.0 | 11.0 | 0.00 | 0.00 | 0.00 | 42 | 1019.1 |
| 20260503180224 | 61 | 188 | 6.0 | 11.0 | 0.00 | 0.00 | 0.00 | 47 | 1019.1 |
| 20260503175729 | 61 | 251 | 2.0 | 9.0 | 0.00 | 0.00 | 0.00 | 46 | 1019.3 |
| 20260503175222 | 60 | 262 | 4.0 | 10.0 | 0.00 | 0.00 | 0.00 | 46 | 1019.4 |
| 20260503174734 | 60 | 237 | 4.0 | 13.0 | 0.00 | 0.00 | 0.00 | 44 | 1019.4 |
| 20260503174226 | 60 | 219 | 3.0 | 13.0 | 0.00 | 0.00 | 0.00 | 45 | 1019.6 |
| 20260503173739 | 60 | 213 | 5.0 | 13.0 | 0.00 | 0.00 | 0.00 | 44 | 1019.6 |
| 20260503173229 | 60 | 251 | 4.0 | 10.0 | 0.00 | 0.00 | 0.00 | 42 | 1019.7 |
| 20260503172741 | 59 | 188 | 6.0 | 13.0 | 0.00 | 0.00 | 0.00 | 44 | 1019.9 |
| 20260503172213 | 59 | 234 | 6.0 | 13.0 | 0.00 | 0.00 | 0.00 | 44 | 1020.0 |
| 20260503171726 | 59 | 266 | 2.0 | 9.0 | 0.00 | 0.00 | 0.00 | 43 | 1019.9 |
| 20260503171223 | 59 | 240 | 4.0 | 15.0 | 0.00 | 0.00 | 0.00 | 47 | 1020.1 |
| 20260503170715 | 60 | 234 | 7.0 | 15.0 | 0.00 | 0.00 | 0.00 | 42 | 1020.4 |
| 20260503170228 | 60 | 168 | 3.0 | 9.0 | 0.00 | 0.00 | 0.00 | 46 | 1020.4 |
| 20260503150724 | 56 | 242 | 6.0 | 11.0 | 0.00 | 0.00 | 0.00 | 52 | 1021.7 |
| 20260503150214 | 55 | 221 | 5.0 | 8.0 | 0.00 | 0.00 | 0.00 | 53 | 1021.5 |
| 20260503140217 | 52 | 227 | 4.0 | 9.0 | 0.00 | 0.00 | 0.00 | 58 | 1021.6 |
| 20260503131231 | 46 | 137 | 3.0 | 7.0 | 0.00 | 0.00 | 0.00 | 73 | 1021.6 |
| 20260503130725 | 46 | 238 | 3.0 | 6.0 | 0.00 | 0.00 | 0.00 | 72 | 1021.5 |
| 20260503130218 | 45 | 240 | 3.0 | 6.0 | 0.00 | 0.00 | 0.00 | 73 | 1021.6 |
| 20260503120220 | 39 | 197 | 2.0 | 3.0 | 0.00 | 0.00 | 0.00 | 81 | 1021.4 |
| 20260503110726 | 35 | 205 | 2.0 | 3.0 | 0.00 | 0.00 | 0.00 | 85 | 1020.9 |
| 20260503110239 | 35 | 203 | 2.0 | 3.0 | 0.00 | 0.00 | 0.00 | 86 | 1020.9 |
| 20260503100214 | 32 | 195 | 3.0 | 4.0 | 0.00 | 0.00 | 0.00 | 90 | 1020.4 |
| 20260503090216 | 33 | 187 | 2.0 | 3.0 | 0.00 | 0.00 | 0.00 | 91 | 1020.4 |
| 20260503081226 | 33 | 192 | 2.0 | 2.0 | 0.00 | 0.00 | 0.00 | 91 | 1020.1 |
| 20260503080719 | 33 | 192 | 1.0 | 2.0 | 0.00 | 0.00 | 0.00 | 91 | 1020.0 |
| 20260503080213 | 34 | 192 | 1.0 | 2.0 | 0.00 | 0.00 | 0.00 | 90 | 1020.0 |
| 20260503072726 | 34 | 203 | 0.0 | 1.0 | 0.00 | 0.00 | 0.00 | 88 | 1019.9 |
| 20260503072219 | 34 | 203 | 0.0 | 2.0 | 0.00 | 0.00 | 0.00 | 88 | 1019.9 |
| 20260503071713 | 35 | 203 | 1.0 | 2.0 | 0.00 | 0.00 | 0.00 | 88 | 1019.9 |
| 20260503071227 | 35 | 203 | 1.0 | 2.0 | 0.00 | 0.00 | 0.00 | 87 | 1019.9 |
| 20260503070720 | 35 | 204 | 1.0 | 1.0 | 0.00 | 0.00 | 0.00 | 88 | 1019.9 |
| 20260503070234 | 35 | 204 | 0.0 | 1.0 | 0.00 | 0.00 | 0.00 | 88 | 1019.9 |
| 20260503060218 | 36 | 209 | 1.0 | 1.0 | 0.00 | 0.00 | 0.00 | 85 | 1020.3 |
| 20260503054713 | 37 | 196 | 1.0 | 2.0 | 0.00 | 0.00 | 0.00 | 84 | 1020.2 |
| 20260503054228 | 36 | 206 | 0.0 | 0.0 | 0.00 | 0.00 | 0.00 | 85 | 1020.3 |
| 20260503053725 | 37 | 206 | 0.0 | 1.0 | 0.00 | 0.00 | 0.00 | 85 | 1020.3 |
| 20260503053218 | 37 | 206 | 0.0 | 2.0 | 0.00 | 0.00 | 0.00 | 84 | 1020.4 |
| 20260503052752 | 37 | 206 | 1.0 | 2.0 | 0.00 | 0.00 | 0.00 | 83 | 1020.3 |
| 20260503052244 | 37 | 210 | 1.0 | 3.0 | 0.00 | 0.00 | 0.00 | 81 | 1020.4 |
| 20260503051717 | 38 | 228 | 1.0 | 3.0 | 0.00 | 0.00 | 0.00 | 80 | 1020.4 |
| 20260503051231 | 38 | 208 | 2.0 | 2.0 | 0.00 | 0.00 | 0.00 | 78 | 1020.4 |
| 20260503050725 | 39 | 212 | 1.0 | 1.0 | 0.00 | 0.00 | 0.00 | 77 | 1020.4 |
| 20260503050219 | 39 | 276 | 0.0 | 0.0 | 0.00 | 0.00 | 0.00 | 75 | 1020.4 |
| 20260503045726 | 39 | 290 | 0.0 | 0.0 | 0.00 | 0.00 | 0.00 | 75 | 1020.4 |
| 20260503045223 | 39 | 290 | 0.0 | 0.0 | 0.00 | 0.00 | 0.00 | 73 | 1020.5 |
| 20260503044717 | 40 | 354 | 0.0 | 0.0 | 0.00 | 0.00 | 0.00 | 73 | 1020.5 |
| 20260503044231 | 40 | 354 | 0.0 | 0.0 | 0.00 | 0.00 | 0.00 | 72 | 1020.5 |
| 20260503043725 | 39 | 354 | 0.0 | 0.0 | 0.00 | 0.00 | 0.00 | 72 | 1020.5 |
| 20260503043218 | 39 | 354 | 0.0 | 0.0 | 0.00 | 0.00 | 0.00 | 73 | 1020.6 |
| 20260503042732 | 39 | 354 | 0.0 | 0.0 | 0.00 | 0.00 | 0.00 | 73 | 1020.5 |
| 20260503042226 | 39 | 354 | 0.0 | 0.0 | 0.00 | 0.00 | 0.00 | 73 | 1020.5 |
| 20260503041720 | 39 | 354 | 0.0 | 0.0 | 0.00 | 0.00 | 0.00 | 71 | 1020.5 |
| 20260503041218 | 39 | 354 | 0.0 | 0.0 | 0.00 | 0.00 | 0.00 | 71 | 1020.5 |
| 20260503040731 | 39 | 354 | 0.0 | 0.0 | 0.00 | 0.00 | 0.00 | 72 | 1020.5 |
| 20260503040225 | 39 | 354 | 0.0 | 0.0 | 0.00 | 0.00 | 0.00 | 71 | 1020.5 |
| 20260503035729 | 39 | 354 | 0.0 | 0.0 | 0.00 | 0.00 | 0.00 | 71 | 1020.5 |
| 20260503035222 | 40 | 354 | 0.0 | 0.0 | 0.00 | 0.00 | 0.00 | 71 | 1020.4 |
| 20260503034716 | 40 | 354 | 0.0 | 0.0 | 0.00 | 0.00 | 0.00 | 70 | 1020.5 |
| 20260503034230 | 41 | 354 | 0.0 | 0.0 | 0.00 | 0.00 | 0.00 | 71 | 1020.5 |
| 20260503033723 | 41 | 354 | 0.0 | 0.0 | 0.00 | 0.00 | 0.00 | 69 | 1020.5 |
| 20260503033222 | 41 | 354 | 0.0 | 0.0 | 0.00 | 0.00 | 0.00 | 68 | 1020.5 |
| 20260503032715 | 41 | 354 | 0.0 | 0.0 | 0.00 | 0.00 | 0.00 | 68 | 1020.5 |
| 20260503032249 | 42 | 354 | 0.0 | 0.0 | 0.00 | 0.00 | 0.00 | 67 | 1020.5 |
| 20260503031741 | 42 | 354 | 0.0 | 0.0 | 0.00 | 0.00 | 0.00 | 66 | 1020.5 |
| 20260503031214 | 43 | 354 | 0.0 | 0.0 | 0.00 | 0.00 | 0.00 | 66 | 1020.5 |
| 20260503030728 | 43 | 354 | 0.0 | 0.0 | 0.00 | 0.00 | 0.00 | 66 | 1020.4 |
| 20260503030222 | 43 | 354 | 0.0 | 0.0 | 0.00 | 0.00 | 0.00 | 67 | 1020.4 |
| 20260503025729 | 42 | 354 | 0.0 | 1.0 | 0.00 | 0.00 | 0.00 | 68 | 1020.4 |
| 20260503025222 | 42 | 354 | 0.0 | 1.0 | 0.00 | 0.00 | 0.00 | 68 | 1020.4 |
| 20260503024720 | 42 | 354 | 0.0 | 1.0 | 0.00 | 0.00 | 0.00 | 69 | 1020.3 |
| 20260503024214 | 43 | 354 | 1.0 | 1.0 | 0.00 | 0.00 | 0.00 | 68 | 1020.2 |
| 20260503023727 | 43 | 354 | 1.0 | 1.0 | 0.00 | 0.00 | 0.00 | 68 | 1020.1 |
| 20260503023221 | 43 | 354 | 0.0 | 2.0 | 0.00 | 0.00 | 0.00 | 67 | 1019.9 |
| 20260503022715 | 43 | 354 | 1.0 | 3.0 | 0.00 | 0.00 | 0.00 | 67 | 1020.1 |
| 20260503022230 | 43 | 354 | 2.0 | 3.0 | 0.00 | 0.00 | 0.00 | 67 | 1020.0 |
| 20260503021723 | 44 | 352 | 2.0 | 4.0 | 0.00 | 0.00 | 0.00 | 66 | 1019.9 |
| 20260503021221 | 44 | 2 | 1.0 | 4.0 | 0.00 | 0.00 | 0.00 | 65 | 1019.8 |
| 20260503020715 | 44 | 1 | 2.0 | 4.0 | 0.00 | 0.00 | 0.00 | 64 | 1019.7 |
| 20260503020248 | 44 | 335 | 2.0 | 4.0 | 0.00 | 0.00 | 0.00 | 64 | 1019.6 |
| 20260503015714 | 44 | 1 | 2.0 | 3.0 | 0.00 | 0.00 | 0.00 | 64 | 1019.5 |
| 20260503015228 | 44 | 334 | 1.0 | 3.0 | 0.00 | 0.00 | 0.00 | 64 | 1019.5 |
| 20260503014722 | 45 | 350 | 2.0 | 3.0 | 0.00 | 0.00 | 0.00 | 63 | 1019.5 |
| 20260503014216 | 45 | 319 | 2.0 | 3.0 | 0.00 | 0.00 | 0.00 | 63 | 1019.4 |
| 20260503013730 | 45 | 347 | 2.0 | 3.0 | 0.00 | 0.00 | 0.00 | 62 | 1019.3 |
| 20260503013222 | 45 | 339 | 0.0 | 0.0 | 0.00 | 0.00 | 0.00 | 62 | 1019.3 |
| 20260503012719 | 45 | 339 | 0.0 | 0.0 | 0.00 | 0.00 | 0.00 | 61 | 1019.2 |
| 20260503012213 | 46 | 339 | 0.0 | 1.0 | 0.00 | 0.00 | 0.00 | 61 | 1019.1 |
| 20260503011745 | 46 | 339 | 0.0 | 3.0 | 0.00 | 0.00 | 0.00 | 61 | 1019.0 |
| 20260503011237 | 46 | 339 | 0.0 | 3.0 | 0.00 | 0.00 | 0.00 | 60 | 1019.0 |
| 20260503010729 | 46 | 345 | 0.0 | 4.0 | 0.00 | 0.00 | 0.00 | 60 | 1018.9 |
| 20260503010222 | 47 | 346 | 0.0 | 4.0 | 0.00 | 0.00 | 0.00 | 59 | 1019.0 |
| 20260503005729 | 47 | 331 | 2.0 | 6.0 | 0.00 | 0.00 | 0.00 | 58 | 1018.8 |
| 20260503005222 | 47 | 337 | 2.0 | 6.0 | 0.00 | 0.00 | 0.00 | 58 | 1018.8 |
| 20260503004716 | 47 | 329 | 1.0 | 4.0 | 0.00 | 0.00 | 0.00 | 58 | 1018.7 |
| 20260503004214 | 48 | 342 | 1.0 | 4.0 | 0.00 | 0.00 | 0.00 | 58 | 1018.7 |
| 20260503003748 | 48 | 340 | 1.0 | 5.0 | 0.00 | 0.00 | 0.00 | 57 | 1018.7 |
| 20260503003240 | 49 | 347 | 2.0 | 5.0 | 0.00 | 0.00 | 0.00 | 56 | 1018.5 |
| 20260503002732 | 49 | 340 | 1.0 | 7.0 | 0.00 | 0.00 | 0.00 | 55 | 1018.6 |
| 20260503002224 | 50 | 325 | 4.0 | 9.0 | 0.00 | 0.00 | 0.00 | 53 | 1018.4 |
| 20260503001717 | 50 | 327 | 2.0 | 9.0 | 0.00 | 0.00 | 0.00 | 54 | 1018.3 |
| 20260503001230 | 51 | 324 | 2.0 | 7.0 | 0.00 | 0.00 | 0.00 | 52 | 1018.3 |
| 20260503000724 | 51 | 13 | 4.0 | 7.0 | 0.00 | 0.00 | 0.00 | 52 | 1018.2 |
| 20260503000218 | 52 | 332 | 3.0 | 7.0 | 0.00 | 0.00 | 0.00 | 50 | 1018.2 |
| 20260502235743 | 52 | 332 | 2.0 | 6.0 | 0.00 | 0.00 | 0.00 | 51 | 1018.1 |
| 20260502235219 | 52 | 319 | 3.0 | 8.0 | 0.00 | 0.00 | 0.00 | 49 | 1018.1 |
| 20260502234732 | 52 | 321 | 4.0 | 8.0 | 0.00 | 0.00 | 0.00 | 49 | 1018.0 |
| 20260502234226 | 52 | 356 | 2.0 | 9.0 | 0.00 | 0.00 | 0.00 | 48 | 1017.9 |
| 20260502233718 | 52 | 298 | 5.0 | 10.0 | 0.00 | 0.00 | 0.00 | 49 | 1017.9 |
| 20260502233231 | 52 | 344 | 5.0 | 10.0 | 0.00 | 0.00 | 0.00 | 50 | 1018.0 |
| 20260502232724 | 52 | 326 | 5.0 | 9.0 | 0.00 | 0.00 | 0.00 | 50 | 1017.9 |
| 20260502232216 | 52 | 328 | 4.0 | 11.0 | 0.00 | 0.00 | 0.00 | 49 | 1018.0 |
| 20260502231713 | 52 | 317 | 5.0 | 13.0 | 0.00 | 0.00 | 0.00 | 47 | 1017.9 |
| 20260502231246 | 53 | 345 | 3.0 | 12.0 | 0.00 | 0.00 | 0.00 | 50 | 1017.9 |
| 20260502230229 | 53 | 1 | 6.0 | 10.0 | 0.00 | 0.00 | 0.00 | 50 | 1017.8 |
| 20260502225715 | 52 | 20 | 3.0 | 9.0 | 0.00 | 0.00 | 0.00 | 52 | 1017.9 |
| 20260502225228 | 52 | 316 | 2.0 | 7.0 | 0.00 | 0.00 | 0.00 | 52 | 1018.0 |
| 20260502224721 | 52 | 349 | 4.0 | 9.0 | 0.00 | 0.00 | 0.00 | 50 | 1017.9 |
| 20260502224214 | 52 | 304 | 5.0 | 9.0 | 0.00 | 0.00 | 0.00 | 51 | 1017.9 |
| 20260502223727 | 52 | 328 | 5.0 | 10.0 | 0.00 | 0.00 | 0.00 | 50 | 1017.9 |
| 20260502223221 | 53 | 1 | 5.0 | 10.0 | 0.00 | 0.00 | 0.00 | 49 | 1017.9 |
| 20260502222732 | 53 | 336 | 3.0 | 5.0 | 0.00 | 0.00 | 0.00 | 51 | 1017.9 |
| 20260502222226 | 53 | 347 | 3.0 | 8.0 | 0.00 | 0.00 | 0.00 | 51 | 1017.9 |
| 20260502221714 | 53 | 359 | 4.0 | 16.0 | 0.00 | 0.00 | 0.00 | 49 | 1017.9 |
| 20260502221226 | 53 | 338 | 6.0 | 16.0 | 0.00 | 0.00 | 0.00 | 48 | 1017.9 |
| 20260502220719 | 54 | 14 | 5.0 | 11.0 | 0.00 | 0.00 | 0.00 | 49 | 1017.7 |
| 20260502220231 | 54 | 285 | 4.0 | 9.0 | 0.00 | 0.00 | 0.00 | 51 | 1017.7 |
| 20260502215719 | 54 | 296 | 2.0 | 9.0 | 0.00 | 0.00 | 0.00 | 47 | 1017.7 |
| 20260502215216 | 54 | 339 | 6.0 | 9.0 | 0.00 | 0.00 | 0.00 | 48 | 1017.7 |
| 20260502214729 | 54 | 282 | 3.0 | 12.0 | 0.00 | 0.00 | 0.00 | 49 | 1017.6 |
| 20260502214221 | 55 | 293 | 4.0 | 12.0 | 0.00 | 0.00 | 0.00 | 49 | 1017.6 |
| 20260502213713 | 56 | 324 | 2.0 | 12.0 | 0.00 | 0.00 | 0.00 | 48 | 1017.5 |
| 20260502213226 | 55 | 267 | 4.0 | 12.0 | 0.00 | 0.00 | 0.00 | 51 | 1017.6 |
| 20260502212736 | 54 | 335 | 4.0 | 15.0 | 0.00 | 0.00 | 0.00 | 49 | 1017.7 |
| 20260502212247 | 53 | 342 | 4.0 | 15.0 | 0.00 | 0.00 | 0.00 | 51 | 1017.7 |
| 20260502211718 | 54 | 277 | 4.0 | 10.0 | 0.00 | 0.00 | 0.00 | 50 | 1017.8 |
| 20260502211231 | 55 | 292 | 2.0 | 12.0 | 0.00 | 0.00 | 0.00 | 52 | 1017.8 |
| 20260502210723 | 55 | 278 | 3.0 | 12.0 | 0.00 | 0.00 | 0.00 | 50 | 1017.7 |
| 20260502210218 | 55 | 350 | 4.0 | 10.0 | 0.00 | 0.00 | 0.00 | 50 | 1017.7 |
| 20260502205724 | 54 | 327 | 4.0 | 10.0 | 0.00 | 0.00 | 0.00 | 52 | 1017.8 |
| 20260502205215 | 54 | 309 | 5.0 | 11.0 | 0.00 | 0.00 | 0.00 | 50 | 1017.7 |
| 20260502204728 | 54 | 358 | 3.0 | 13.0 | 0.00 | 0.00 | 0.00 | 53 | 1017.8 |
| 20260502204221 | 53 | 317 | 6.0 | 13.0 | 0.00 | 0.00 | 0.00 | 51 | 1017.7 |
| 20260502203715 | 54 | 276 | 4.0 | 9.0 | 0.00 | 0.00 | 0.00 | 53 | 1017.8 |
| 20260502203229 | 53 | 287 | 3.0 | 11.0 | 0.00 | 0.00 | 0.00 | 53 | 1017.7 |
| 20260502202723 | 53 | 259 | 4.0 | 11.0 | 0.00 | 0.00 | 0.00 | 53 | 1017.9 |
| 20260502202221 | 53 | 288 | 3.0 | 7.0 | 0.00 | 0.00 | 0.00 | 54 | 1018.0 |
| 20260502201715 | 52 | 321 | 2.0 | 8.0 | 0.00 | 0.00 | 0.00 | 56 | 1018.0 |
| 20260502201229 | 52 | 327 | 2.0 | 12.0 | 0.00 | 0.00 | 0.00 | 57 | 1018.0 |
| 20260502200721 | 52 | 336 | 7.0 | 12.0 | 0.00 | 0.00 | 0.00 | 53 | 1018.1 |
| 20260502200213 | 53 | 327 | 3.0 | 10.0 | 0.00 | 0.00 | 0.00 | 54 | 1018.1 |
| 20260502195739 | 53 | 266 | 3.0 | 7.0 | 0.00 | 0.00 | 0.00 | 53 | 1018.1 |
| 20260502195229 | 54 | 282 | 3.0 | 8.0 | 0.00 | 0.00 | 0.00 | 52 | 1018.2 |
| 20260502194720 | 54 | 286 | 2.0 | 15.0 | 0.00 | 0.00 | 0.00 | 51 | 1018.2 |
| 20260502194216 | 53 | 359 | 6.0 | 15.0 | 0.00 | 0.00 | 0.00 | 54 | 1018.2 |
| 20260502193728 | 53 | 340 | 7.0 | 11.0 | 0.00 | 0.00 | 0.00 | 53 | 1018.2 |
| 20260502193220 | 53 | 323 | 1.0 | 11.0 | 0.00 | 0.00 | 0.00 | 56 | 1018.2 |
| 20260502192713 | 53 | 315 | 2.0 | 11.0 | 0.00 | 0.00 | 0.00 | 54 | 1018.3 |
| 20260502192227 | 53 | 269 | 5.0 | 9.0 | 0.00 | 0.00 | 0.00 | 52 | 1018.2 |
| 20260502191721 | 53 | 322 | 3.0 | 11.0 | 0.00 | 0.00 | 0.00 | 53 | 1018.2 |
| 20260502191215 | 53 | 266 | 6.0 | 11.0 | 0.00 | 0.00 | 0.00 | 50 | 1018.3 |
| 20260502190729 | 54 | 305 | 3.0 | 12.0 | 0.00 | 0.00 | 0.00 | 53 | 1018.2 |
| 20260502190242 | 54 | 313 | 4.0 | 12.0 | 0.00 | 0.00 | 0.00 | 51 | 1018.3 |
| 20260502185730 | 54 | 317 | 5.0 | 12.0 | 0.00 | 0.00 | 0.00 | 54 | 1018.3 |
| 20260502185224 | 53 | 293 | 4.0 | 9.0 | 0.00 | 0.00 | 0.00 | 54 | 1018.3 |
| 20260502184715 | 53 | 312 | 2.0 | 9.0 | 0.00 | 0.00 | 0.00 | 54 | 1018.3 |